Hourly Data Report for April 29, 2021

TORONTO CITY
ONTARIO
Current Station Operator: ECCC - MSC

43°40'00.000" N
79°24'00.000" W
112.50 m
6158355
71508
XTO

Download Data

Hourly Data (April 2021)
Hourly Data Report for April 29, 2021
TIME
LST
Temp Definition
°C
Dew Point Definition
°C
Rel Hum Definition
%
Precip. Amount Definition
mm

Wind Dir Definition
10's deg

Wind Spd Definition
km/h
Visibility Definition
km
Stn Press Definition
kPa
Hmdx Definition


Wind Chill Definition


Weather Definition


00:00 8.9 8.2 96 0.0       99.66     LegendNANA
01:00 8.3 7.6 95 0.1       99.65     LegendNANA
02:00 8.6 8.0 96 0.0       99.66     LegendNANA
03:00 8.8 8.1 95 0.0       99.54     LegendNANA
04:00 9.1 8.2 94 0.0       99.55     LegendNANA
05:00 8.6 7.9 95 0.0       99.55     LegendNANA
06:00 8.6 7.5 93 0.0       99.64     LegendNANA
07:00 8.6 7.2 91 0.0       99.52     LegendNANA
08:00 8.6 7.2 91 0.0       99.47     LegendNANA
09:00 8.6 7.1 90 0.0       99.43     LegendNANA
10:00 8.6 6.6 88 0.0       99.35     LegendNANA
11:00 8.4 7.2 92 0.6       99.32     LegendNANA
12:00 9.2 7.9 91 1.1       99.25     LegendNANA
13:00 9.8 8.2 89 0.4       99.14     LegendNANA
14:00 9.7 8.4 91 0.7       98.99     LegendNANA
15:00 10.2 8.5 90 0.5       98.95     LegendNANA
16:00 10.7 8.9 89 0.3       98.95     LegendNANA
17:00 10.5 9.5 93 0.6       98.92     LegendNANA
18:00 9.6 8.7 94 0.7       98.93     LegendNANA
19:00 9.3 8.4 94 1.3       98.95     LegendNANA
20:00 8.9 8.2 95 0.4       98.95     LegendNANA
21:00 8.7 8.1 96 0.5       98.96     LegendNANA
22:00 9.4 8.8 96 0.8       98.93     LegendNANA
23:00 10.1 8.2 88 0.6       98.92     LegendNANA

Notes on Data Quality.

Legend

  • E = Estimated
  • M = Missing
  • NA = Not Available*
  • [empty] = Indicates an unobserved value
Date modified: